sat.trackr.live / text

‹ back to catalog

STARLINK-31927

NORAD 59837 · 2024-097C

PAYLOAD ACTIVE UNKNOWN

§ Identity

Operator
Country
US
Launch date
2024-05-23
Launch site
AFETR
Launch vehicle
Mass (kg)
RCS (m²)

Purposes: comms

External: N2YO · Heavens-Above · Gunter

§ Orbital elements

Epoch: 2026-05-25T04:08:16.713888Z

Period
94.27 min
Inclination
43.0000°
Eccentricity
0.0001763
Mean motion
15.27596128 rev/d
Perigee alt
481.8 km
Apogee alt
484.2 km
Semi-major
6,861.1 km
B*
3.5545e-4
RAAN
202.4442°
Arg perigee
275.4385°
Mean anomaly
84.6265°
Rev number
11,361

§ Raw data

STARLINK-319271 59837U 24097C   26145.17241567  .00009537  00000+0  35545-3 0  99932 59837  43.0000 202.4442 0001763 275.4385  84.6265 15.27596128113619

JSON: /api/v1/satellites/59837 · /tle

For live sub-satellite position, see the globe view (requires WebGL).

§ Visibility from observer

Set your observer location to see the next 7 days of passes ≥ 10°. The values pass through the URL so the page stays shareable.

No JS? Fill the form by hand. The geolocation button needs JavaScript.